Weather Roundup
Issued by NWS Springfield, MO

Home | Current Version | Previous Version | Text Only | Print | Product List | Glossary On
Versions: 1 2 3 4 5 6 7 8 9 10 11 12 13 14 15 16 17 18 19 20 21 22 23 24 25 26 27 28 29 30 31 32 33 34 35 36 37 38 39 40 41 42 43 44 45 46 47 48 49 50
000
NZUS99 KSGF 050510
HRRSGF

HOURLY WEATHER
NATIONAL WEATHER SERVICE SPRINGFIELD MO
1200 AM CDT WED AUG 05 2015

......SGF CWA......

CITY           SKY/WX    TMP DP  RH WIND       PRES   REMARKS
SPRINGFIELD    LGT RAIN  73  70  90 SE9       30.02S
JOPLIN         PTCLDY    73  70  90 SE6       29.97F
WEST PLAINS    LGT RAIN  73  64  73 S8        30.06F
ROLLA          CLOUDY    70  63  78 NE8       30.02R
OSAGE BEACH    CLOUDY    72  66  83 SW3       30.00S
BRANSON        LGT RAIN  70  68  94 CALM      30.05R

......SURROUNDING SGF CWA......

CITY           SKY/WX    TMP DP  RH WIND       PRES   REMARKS
CHANUTE        MOCLDY    71  69  93 SE8       29.96F
PARSONS        CLEAR     72  71  97 VRB3      29.97F
COFFEYVILLE    PTCLDY    73  71  93 E5        29.95F
EMPORIA        PTCLDY    71  65  81 S12       29.96F
GROVE OK       MOCLDY    73  73 100 E5        29.98F
ROGERS AR      CLOUDY    73  70  90 E10       30.02F
SILOAM SPRINGS CLOUDY    75  64  69 E6        29.99F
HARRISON AR    LGT RAIN  72  66  81 SW3       30.05R
NEAR YELLVILLE CLOUDY    72  66  83 CALM      30.00S

......KANSAS AND MISSOURI......

CITY           SKY/WX    TMP DP  RH WIND       PRES   REMARKS
KANSAS CTY INT CLOUDY    71  69  93 SE9       29.99R
DOWNTOWN KC    MOCLDY    73  69  87 SE10      29.99R
COLUMBIA       LGT RAIN  70  68  93 N14       29.99F
SEDALIA        CLOUDY    70  67  90 NE3       30.01F
ST JOSEPH      CLOUDY    70  68  93 SE6       29.98R
ST LOUIS       MOCLDY    78  69  73 E5        30.03R
SPIRIT OF STL  CLOUDY    76  74  93 CALM      30.01R
KIRKSVILLE     PTCLDY    69  64  84 E7        30.04R
WICHITA        CLOUDY    76  70  82 E9        29.95R
TOPEKA         MOCLDY    71  70  96 E6        29.96F
OLATHE         MOCLDY    71  70  96 S7        29.99F

......TENNESSEE......

CITY           SKY/WX    TMP DP  RH WIND       PRES   REMARKS
MEMPHIS        CLOUDY    88  68  51 CALM      29.99S HX  91
NASHVILLE      CLOUDY    81  71  71 NE7       30.02F

......ARKANSAS.......

CITY           SKY/WX    TMP DP  RH WIND       PRES   REMARKS
FAYETTEVILLE   CLOUDY    76  73  91 E3        30.01S
FT SMITH       CLOUDY    79  71  76 E3        29.96S
LITTLE ROCK    CLOUDY    83  70  64 CALM      29.97S

......OKLAHOMA.......

CITY           SKY/WX    TMP DP  RH WIND       PRES   REMARKS
TULSA          CLOUDY    79  73  82 E3        29.93F
MCALESTER      PTCLDY    80  69  69 SE6       29.95F
OKLAHOMA CITY  PTCLDY    76  72  87 SE9       29.94F

......IOWA............

CITY           SKY/WX    TMP DP  RH WIND       PRES   REMARKS
DES MOINES     LGT RAIN  72  63  73 SE7       30.02R
QUAD CITIES    CLEAR     64  61  90 S3        30.03F

......ILLINOIS........

CITY           SKY/WX    TMP DP  RH WIND       PRES   REMARKS
QUINCY         CLOUDY    71  64  78 E3        30.04R
CHICAGO        PTCLDY    67  58  72 CALM      30.04R



USA.gov is the U.S. government's official web portal to all federal, state and local government web resources and services.